TimePST,TemperatureF,Dew PointF,Humidity,Sea Level PressureIn,VisibilityMPH,Wind Direction,Wind SpeedMPH,Gust SpeedMPH,PrecipitationIn,Events,Conditions,WindDirDegrees,DateUTC
12:03 AM,41.0,41.0,100,30.20,0.5,Calm,Calm,-,N/A,Fog,Fog,40,2012-11-06 08:03:00
12:18 AM,41.0,41.0,100,30.20,0.8,NE,2.3,-,N/A,,Clear,40,2012-11-06 08:18:00
12:23 AM,41.0,41.0,100,30.20,1.5,NE,1.2,-,N/A,,Clear,40,2012-11-06 08:23:00
12:28 AM,41.0,41.0,100,30.20,8.0,NE,3.5,-,N/A,,Clear,50,2012-11-06 08:28:00
12:33 AM,39.2,39.2,100,30.20,10.0,NNE,2.3,-,N/A,,Clear,30,2012-11-06 08:33:00
12:58 AM,38.8,38.8,100,30.22,10.0,ENE,2.3,-,N/A,,Mostly Cloudy,60,2012-11-06 08:58:00
1:53 AM,39.2,39.2,100,30.18,2.5,NE,4.6,-,N/A,,Overcast,50,2012-11-06 09:53:00
1:58 AM,39.6,39.6,100,30.22,1.2,NE,3.5,-,N/A,,Overcast,40,2012-11-06 09:58:00
2:03 AM,39.2,39.2,100,30.18,1.0,NE,4.6,-,N/A,,Mostly Cloudy,40,2012-11-06 10:03:00
2:13 AM,39.2,39.2,100,30.18,1.5,NE,4.6,-,N/A,,Scattered Clouds,50,2012-11-06 10:13:00
2:18 AM,39.2,39.2,100,30.18,1.2,NE,4.6,-,N/A,,Partly Cloudy,50,2012-11-06 10:18:00
2:23 AM,39.2,39.2,100,30.18,1.0,NNE,4.6,-,N/A,,Clear,30,2012-11-06 10:23:00
2:28 AM,39.2,39.2,100,30.18,1.0,NNE,4.6,-,N/A,,Clear,30,2012-11-06 10:28:00
2:33 AM,39.2,39.2,100,30.18,1.8,NNE,5.8,-,N/A,,Clear,20,2012-11-06 10:33:00
2:38 AM,39.2,39.2,100,30.18,6.0,NNE,5.8,-,N/A,,Clear,30,2012-11-06 10:38:00
2:43 AM,39.2,39.2,100,30.18,0.8,NNE,4.6,-,N/A,,Clear,30,2012-11-06 10:43:00
2:48 AM,39.2,39.2,100,30.18,0.5,NE,4.6,-,N/A,Fog,Fog,40,2012-11-06 10:48:00
2:58 AM,39.0,39.0,100,30.20,1.0,NE,3.5,-,N/A,,Clear,40,2012-11-06 10:58:00
3:03 AM,39.2,39.2,100,30.17,0.8,NE,4.6,-,N/A,,Clear,50,2012-11-06 11:03:00
3:08 AM,37.4,37.4,100,30.17,0.5,NE,3.5,-,N/A,Fog,Fog,50,2012-11-06 11:08:00
3:10 AM,37.4,37.4,100,30.17,0.5,NE,3.5,-,N/A,Fog,Fog,50,2012-11-06 11:10:00
3:14 AM,37.4,37.4,100,30.17,0.5,NE,3.5,-,N/A,Fog,Fog,50,2012-11-06 11:14:00
3:28 AM,37.4,37.4,100,30.16,0.5,NE,5.8,-,N/A,Fog,Fog,50,2012-11-06 11:28:00
3:38 AM,37.4,37.4,100,30.15,1.0,NE,5.8,-,N/A,,Clear,50,2012-11-06 11:38:00
3:43 AM,37.4,37.4,100,30.15,1.5,NE,5.8,-,N/A,,Clear,40,2012-11-06 11:43:00
3:48 AM,37.4,37.4,100,30.15,2.0,NE,4.6,-,N/A,,Clear,40,2012-11-06 11:48:00
3:53 AM,37.4,37.4,100,30.15,2.0,NE,4.6,-,N/A,,Clear,40,2012-11-06 11:53:00
3:58 AM,37.8,37.8,100,30.19,2.0,NE,5.8,-,0.00,,Clear,40,2012-11-06 11:58:00
4:03 AM,37.4,37.4,100,30.15,1.8,NE,5.8,-,N/A,,Clear,50,2012-11-06 12:03:00
4:13 AM,39.2,39.2,100,30.15,1.0,NE,4.6,-,N/A,,Clear,40,2012-11-06 12:13:00
4:18 AM,39.2,39.2,100,30.15,0.5,NE,6.9,-,N/A,Fog,Fog,40,2012-11-06 12:18:00
4:35 AM,39.2,39.2,100,30.15,0.5,NE,4.6,-,N/A,Fog,Fog,40,2012-11-06 12:35:00
4:40 AM,39.2,39.2,100,30.14,0.2,NE,3.5,-,N/A,Fog,Fog,50,2012-11-06 12:40:00
4:52 AM,37.4,37.4,100,30.14,0.2,NE,3.5,-,N/A,Fog,Fog,40,2012-11-06 12:52:00
4:58 AM,37.8,37.8,100,30.18,0.1,NE,3.5,-,0.00,Fog,Fog,40,2012-11-06 12:58:00
5:08 AM,37.4,37.4,100,30.14,0.8,NNE,6.9,-,N/A,,Clear,30,2012-11-06 13:08:00
5:09 AM,37.4,37.4,100,30.14,0.8,NNE,6.9,-,N/A,,Mist,30,2012-11-06 13:09:00
5:14 AM,37.4,37.4,100,30.14,0.5,NNE,5.8,-,N/A,Fog,Fog,30,2012-11-06 13:14:00
5:19 AM,37.4,37.4,100,30.14,0.5,NNE,6.9,-,N/A,Fog,Fog,30,2012-11-06 13:19:00
5:58 AM,39.2,39.2,100,30.16,0.5,NE,5.8,-,0.00,Fog,Fog,40,2012-11-06 13:58:00
6:03 AM,39.2,39.2,100,30.12,0.5,NE,5.8,-,N/A,Fog,Fog,40,2012-11-06 14:03:00
6:13 AM,39.2,39.2,100,30.13,0.5,NNE,6.9,-,N/A,Fog,Fog,30,2012-11-06 14:13:00
6:23 AM,39.2,39.2,100,30.13,0.8,NNE,6.9,-,N/A,,Mist,30,2012-11-06 14:23:00
6:33 AM,39.2,39.2,100,30.12,0.5,NE,6.9,-,N/A,Fog,Fog,40,2012-11-06 14:33:00
6:38 AM,39.2,39.2,100,30.12,0.2,NE,5.8,-,N/A,Fog,Fog,50,2012-11-06 14:38:00
6:44 AM,39.2,39.2,100,30.12,0.2,ENE,5.8,-,N/A,Fog,Fog,60,2012-11-06 14:44:00
6:58 AM,40.1,40.1,100,30.16,0.2,NE,9.2,-,0.00,Fog,Fog,50,2012-11-06 14:58:00
6:59 AM,41.0,41.0,100,30.12,0.2,NE,8.1,-,N/A,Fog,Fog,50,2012-11-06 14:59:00
7:09 AM,41.0,41.0,100,30.12,0.2,NE,9.2,-,N/A,Fog,Fog,50,2012-11-06 15:09:00
7:23 AM,41.0,41.0,100,30.12,0.2,NE,8.1,-,N/A,Fog,Fog,40,2012-11-06 15:23:00
7:34 AM,41.0,41.0,100,30.11,0.2,NE,6.9,-,N/A,Fog,Fog,50,2012-11-06 15:34:00
7:58 AM,41.0,41.0,100,30.15,0.2,NE,6.9,-,0.00,Fog,Fog,50,2012-11-06 15:58:00
8:03 AM,41.0,41.0,100,30.11,0.5,NE,8.1,-,N/A,Fog,Fog,40,2012-11-06 16:03:00
8:08 AM,41.0,41.0,100,30.11,0.8,NE,6.9,-,N/A,,Mist,40,2012-11-06 16:08:00
8:13 AM,41.0,41.0,100,30.11,0.5,NNE,6.9,-,N/A,Fog,Fog,30,2012-11-06 16:13:00
8:21 AM,41.0,41.0,100,30.11,0.2,NE,8.1,-,N/A,Fog,Fog,40,2012-11-06 16:21:00
8:47 AM,41.0,41.0,100,30.10,0.2,NNE,6.9,-,N/A,Fog,Fog,30,2012-11-06 16:47:00
8:58 AM,41.9,41.9,100,30.13,0.2,NE,6.9,-,0.00,Fog,Fog,40,2012-11-06 16:58:00
9:08 AM,42.8,42.8,100,30.09,0.2,NE,6.9,-,N/A,Fog,Fog,40,2012-11-06 17:08:00
9:23 AM,42.8,42.8,100,30.09,0.2,ENE,6.9,-,N/A,Fog,Fog,60,2012-11-06 17:23:00
9:28 AM,42.8,42.8,100,30.08,0.2,NE,8.1,-,N/A,Fog,Fog,50,2012-11-06 17:28:00
9:58 AM,43.5,43.5,100,30.12,0.2,NNE,6.9,-,N/A,Fog,Fog,30,2012-11-06 17:58:00
10:33 AM,44.6,44.6,100,30.06,0.5,NE,8.1,-,N/A,Fog,Fog,40,2012-11-06 18:33:00
10:43 AM,46.4,46.4,100,30.06,0.5,NE,6.9,-,N/A,Fog,Fog,50,2012-11-06 18:43:00
10:58 AM,46.0,46.0,100,30.09,0.5,NE,6.9,-,N/A,Fog,Fog,40,2012-11-06 18:58:00
11:03 AM,46.4,46.4,100,30.05,0.8,NE,6.9,-,N/A,,Mist,40,2012-11-06 19:03:00
11:13 AM,46.4,46.4,100,30.05,1.0,NNE,6.9,-,N/A,,Mist,20,2012-11-06 19:13:00
11:18 AM,48.2,48.2,100,30.04,2.0,NNE,6.9,-,N/A,,Overcast,30,2012-11-06 19:18:00
11:23 AM,48.2,48.2,100,30.04,3.0,NNE,6.9,-,N/A,,Overcast,30,2012-11-06 19:23:00
11:28 AM,48.2,48.2,100,30.03,6.0,NE,5.8,-,N/A,,Mostly Cloudy,50,2012-11-06 19:28:00
11:48 AM,48.2,48.2,100,30.02,10.0,NE,5.8,-,N/A,,Scattered Clouds,40,2012-11-06 19:48:00
11:53 AM,48.2,48.2,100,30.02,10.0,NNE,5.8,-,N/A,,Mostly Cloudy,30,2012-11-06 19:53:00
11:58 AM,48.9,48.9,100,30.05,10.0,Variable,5.8,-,N/A,,Partly Cloudy,0,2012-11-06 19:58:00
12:58 PM,51.6,51.6,100,30.01,10.0,NE,6.9,-,N/A,,Clear,40,2012-11-06 20:58:00
1:58 PM,52.7,52.7,100,29.98,10.0,NNE,6.9,-,N/A,,Clear,30,2012-11-06 21:58:00
2:17 PM,53.6,53.6,100,29.95,10.0,North,5.8,-,N/A,,Clear,10,2012-11-06 22:17:00
2:58 PM,54.0,54.0,100,29.97,10.0,SSE,2.3,-,N/A,,Clear,160,2012-11-06 22:58:00
3:58 PM,51.6,51.6,100,29.94,10.0,NNE,4.6,-,N/A,,Clear,30,2012-11-06 23:58:00
4:58 PM,49.8,49.8,100,29.94,3.0,Calm,Calm,-,N/A,,Clear,20,2012-11-07 00:58:00
5:08 PM,51.8,51.8,100,29.90,4.0,Calm,Calm,-,N/A,,Clear,0,2012-11-07 01:08:00
5:58 PM,49.1,49.1,100,29.91,10.0,SE,2.3,-,N/A,,Mostly Cloudy,140,2012-11-07 01:58:00
6:58 PM,52.7,52.7,100,29.90,10.0,South,6.9,-,N/A,,Overcast,190,2012-11-07 02:58:00
7:38 PM,51.8,51.8,100,29.88,10.0,SSW,6.9,-,N/A,Rain,Light Rain,210,2012-11-07 03:38:00
7:58 PM,52.5,52.5,100,29.91,10.0,South,8.1,-,0.00,Rain,Light Rain,170,2012-11-07 03:58:00
8:27 PM,51.8,51.8,100,29.86,10.0,South,9.2,-,N/A,,Mostly Cloudy,180,2012-11-07 04:27:00
8:36 PM,51.8,51.8,100,29.86,10.0,SSW,10.4,-,N/A,Rain,Light Rain,200,2012-11-07 04:36:00
8:50 PM,51.8,51.8,100,29.88,10.0,SSW,10.4,-,N/A,Rain,Light Rain,210,2012-11-07 04:50:00
8:58 PM,52.0,52.0,100,29.89,10.0,SSW,9.2,-,0.00,Rain,Light Rain,210,2012-11-07 04:58:00
9:03 PM,51.8,51.8,100,29.87,10.0,SSW,9.2,-,N/A,Rain,Light Rain,200,2012-11-07 05:03:00
9:08 PM,51.8,51.8,100,29.87,10.0,South,11.5,-,N/A,Rain,Light Rain,190,2012-11-07 05:08:00
9:09 PM,51.8,51.8,100,29.87,10.0,South,11.5,-,N/A,,Overcast,190,2012-11-07 05:09:00
9:26 PM,51.8,51.8,100,29.87,7.0,South,12.7,-,N/A,Rain,Light Rain,190,2012-11-07 05:26:00
9:41 PM,51.8,51.8,100,29.88,6.0,South,12.7,-,N/A,Rain,Light Rain,190,2012-11-07 05:41:00
9:51 PM,51.8,51.8,100,29.87,5.0,SSW,11.5,-,N/A,,Overcast,200,2012-11-07 05:51:00
9:58 PM,51.3,51.3,100,29.90,5.0,SSW,12.7,-,0.01,,Overcast,200,2012-11-07 05:58:00
10:03 PM,51.8,51.8,100,29.88,5.0,SSW,12.7,-,N/A,,Overcast,200,2012-11-07 06:03:00
10:21 PM,51.8,51.8,100,29.88,4.0,SSW,10.4,-,N/A,Rain,Light Rain,200,2012-11-07 06:21:00
10:33 PM,50.0,50.0,100,29.88,4.0,SSW,10.4,-,N/A,,Overcast,200,2012-11-07 06:33:00
10:39 PM,50.0,50.0,100,29.88,4.0,South,10.4,-,N/A,Rain,Light Rain,190,2012-11-07 06:39:00
10:49 PM,50.0,50.0,100,29.88,4.0,South,11.5,-,N/A,Rain,Light Rain,190,2012-11-07 06:49:00
10:58 PM,50.5,50.5,100,29.90,4.0,South,10.4,-,0.01,Rain,Light Rain,190,2012-11-07 06:58:00
11:06 PM,50.0,50.0,100,29.88,4.0,SSW,11.5,-,N/A,,Overcast,200,2012-11-07 07:06:00
11:58 PM,49.6,49.6,100,29.90,5.0,SSW,10.4,-,0.00,,Overcast,200,2012-11-07 07:58:00